This demonstration page uses our WeatherBlox Daily Observations layout. Learn more.

Left ArrowRight Arrow

Hourly Observations for August 19, 2022

Temp ( °F °C ) Dew Point ( °F °C ) Humidity (%) Winds ( mph kmh ) Pressure ( in mb ) Visibility ( mi km ) Precip ( " mm )
12:52 am 00:52 Clear 66 18.9 61 16.1 84 84 SSE 7 11 29.96 1015 10 16 0.00 0.00
1:52 am 01:52 Clear 67 19.4 61 16.1 81 81 S 8 13 29.96 1015 10 16 0.00 0.00
2:52 am 02:52 Clear 65 18.3 61 16.1 87 87 S 8 13 29.96 1014 10 16 0.00 0.00
3:52 am 03:52 Clear 64 17.8 61 16.1 90 90 S 5 7 29.96 1015 10 16 0.00 0.00
4:52 am 04:52 Clear 63 17.2 61 16.1 93 93 S 3 6 29.95 1014 10 16 0.00 0.00
5:52 am 05:52 Clear 64 17.8 61 16.1 90 90 S 6 9 29.95 1014 10 16 0.00 0.00
6:52 am 06:52 Sunny 63 17.2 62 16.7 97 97 S 5 7 29.95 1014 10 16 0.00 0.00
7:52 am 07:52 Sunny 68 20 64 17.8 87 87 SSW 6 9 29.96 1015 9 14 0.00 0.00
8:52 am 08:52 Sunny 73 22.8 65 18.3 76 76 SSW 7 11 29.97 1015 10 16 0.00 0.00
9:52 am 09:52 Sunny 76 24.4 66 18.9 71 71 SSW 6 9 29.96 1015 10 16 0.00 0.00
10:52 am 10:52 Sunny 79 26.1 63 17.2 58 58 SW 8 13 29.96 1015 10 16 0.00 0.00
11:52 am 11:52 Sunny 81 27.2 65 18.3 58 58 WSW 5 7 29.96 1015 10 16 0.00 0.00
12:52 pm 12:52 Sunny 82 27.8 62 16.7 51 51 SW 3 6 29.95 1014 10 16 0.00 0.00
1:52 pm 13:52 Sunny 83 28.3 61 16.1 48 48 Calm 29.95 1014 10 16 0.00 0.00
2:52 pm 14:52 Sunny 86 30 60 15.6 42 42 Calm 29.93 1014 10 16 0.00 0.00
3:52 pm 15:52 Mostly Cloudy 84 28.9 60 15.6 45 45 VRB 6 9 29.91 1013 10 16 0.00 0.00
4:52 pm 16:52 Cloudy 84 28.9 61 16.1 46 46 S 7 11 29.90 1013 10 16 0.00 0.00
5:52 pm 17:52 Sunny 84 28.9 61 16.1 46 46 SSW 7 11 29.89 1012 10 16 0.00 0.00
6:52 pm 18:52 Sunny 81 27.2 61 16.1 51 51 S 8 13 29.89 1012 10 16 0.00 0.00
7:52 pm 19:52 Mostly Sunny 78 25.6 62 16.7 58 58 S 8 13 29.89 1012 10 16 0.00 0.00
8:52 pm 20:52 Mostly Clear 77 25 63 17.2 62 62 S 7 11 29.91 1013 10 16 0.00 0.00
9:52 pm 21:52 Partly Cloudy 77 25 63 17.2 62 62 S 8 13 29.93 1014 10 16 0.00 0.00
10:52 pm 22:52 Clear 75 23.9 61 16.1 62 62 SSE 10 17 29.93 1014 10 16 0.00 0.00
11:52 pm 23:52 Clear 74 23.3 62 16.7 66 66 SSE 8 13 29.94 1014 10 16 0.00 0.00

Powered by AerisWeather